This is the latest recevied weather packets stored in our database for station/object M0TUM-1. If no packets are shown the sender has not sent any weather packets the latest 10 day(s).
| Time | Temp. | Humidity | Pressure | Rain* | Wind** | Luminosity | Snow |
|---|---|---|---|---|---|---|---|
| 1777646158 | 23.89° C | 29% | 1019.8 hPa | 0 mm | - | 492 W/m² | - |
| 1777645855 | 23.89° C | 30% | 1019.6 hPa | 0 mm | - | 509 W/m² | - |
| 1777645552 | 23.89° C | 29% | 1019.6 hPa | 0 mm | - | 516 W/m² | - |
| 1777645248 | 23.89° C | 28% | 1019.6 hPa | 0 mm | - | 516 W/m² | - |
| 1777644944 | 24.44° C | 29% | 1019.7 hPa | 0 mm | - | 537 W/m² | - |
| 1777644642 | 24.44° C | 27% | 1019.5 hPa | 0 mm | - | 537 W/m² | - |
| 1777644338 | 23.89° C | 29% | 1019.6 hPa | 0 mm | - | 545 W/m² | - |
| 1777644034 | 23.89° C | 29% | 1019.7 hPa | 0 mm | - | 546 W/m² | - |
| 1777643731 | 23.89° C | 30% | 1019.6 hPa | 0 mm | - | 542 W/m² | - |
| 1777643429 | 24.44° C | 29% | 1019.7 hPa | 0 mm | - | 521 W/m² | - |
| 1777643125 | 23.89° C | 29% | 1019.9 hPa | 0 mm | - | 571 W/m² | - |
| 1777642822 | 23.89° C | 28% | 1019.7 hPa | 0 mm | - | 591 W/m² | - |
| 1777642519 | 23.89° C | 28% | 1019.9 hPa | 0 mm | - | 589 W/m² | - |
| 1777642215 | 23.89° C | 29% | 1019.9 hPa | 0 mm | - | 577 W/m² | - |
| 1777641913 | 23.89° C | 29% | 1020.1 hPa | 0 mm | - | 564 W/m² | - |
| 1777641608 | 23.89° C | 28% | 1019.9 hPa | 0 mm | - | 580 W/m² | - |
| 1777641302 | 23.33° C | 28% | 1020 hPa | 0 mm | - | 607 W/m² | - |
| 1777640998 | 23.33° C | 29% | 1020 hPa | 0 mm | - | 609 W/m² | - |
| 1777640695 | 23.33° C | 29% | 1020.2 hPa | 0 mm | - | 612 W/m² | - |
| 1777640391 | 22.78° C | 29% | 1020 hPa | 0 mm | - | 613 W/m² | - |
| 1777640089 | 22.78° C | 29% | 1020.3 hPa | 0 mm | - | 609 W/m² | - |
| 1777639785 | 22.78° C | 29% | 1020.3 hPa | 0 mm | - | 392 W/m² | - |
| 1777639483 | 22.78° C | 30% | 1020.3 hPa | 0 mm | - | 615 W/m² | - |
| 1777639179 | 22.78° C | 29% | 1020.2 hPa | 0 mm | - | 614 W/m² | - |
| 1777638876 | 22.22° C | 30% | 1020.3 hPa | 0 mm | - | 621 W/m² | - |
* Rain latest hour (hover to see other rain measurements)
** Current wind speed in m/s (hover to see current wind gust speed)